Honolulu, HI

1:47 AM HST on May 25, 2017 (GMT -1000)
Honolulu International

Weather History for PHNL - December, 2012

Change the Weather History Date:

Tuesday, December 4, 2012

  Actual Average Record
Temperature  
Mean Temperature 76 °F 76 °F  
Max Temperature 82 °F 82 °F 88 °F (1983)
Min Temperature 70 °F 70 °F 59 °F (1962)
Degree Days  
Heating Degree Days 0 0  
Month to date heating degree days 0 0  
Since 1 July heating degree days 0 0  
Cooling Degree Days 11 11  
Month to date cooling degree days 41 44  
Year to date cooling degree days 4233 4370  
Growing Degree Days 25 (Base 50)    
Moisture  
Dew Point 71 °F    
Average Humidity 84    
Maximum Humidity 93    
Minimum Humidity 74    
Precipitation  
Precipitation 0.01 in 0.08 in 1.41 in (1978)
Month to date precipitation 0.01 0.31  
Year to date precipitation 8.60 14.17  
Snow  
Snow 0.00 in - - ()
Month to date snowfall 0.0  
Since 1 July snowfall 0.0  
Snow Depth 0.00 in    
Sea Level Pressure  
Sea Level Pressure 30.00 in    
Wind  
Wind Speed 5 mph (ESE)    
Max Wind Speed 14 mph    
Max Gust Speed 16 mph    
Visibility 10 miles    
Events Rain , Thunderstorm    
T = Trace of Precipitation, MM = Missing Value Source: NWS Daily Summary

Daily Weather History Graph

Daily Weather History Graph

Search for Another Location

Airport or City:

Trip Planner

Search our weather history database for the weather conditions in past years. The results will help you decide how hot, cold, wet, or windy it might be!

Date:

Astronomy

Dec. 04, 2012 Rise Set
Actual Time 6:55 AM HST 5:49 PM HST
Civil Twilight 6:31 AM HST 6:13 PM HST
Nautical Twilight 6:03 AM HST 6:40 PM HST
Astronomical Twilight 5:36 AM HST 7:08 PM HST
Moon 11:18 PM HST (12/4) 11:20 AM HST (12/4)
Length of Visible Light 11h 42m
Length of Day
10h 54m
Waning Gibbous, 67% of the Moon is Illuminated
Dec 4
Waning Gibbous
Dec 6
Last Quarter
Dec 12
New
Dec 19
First Quarter
Dec 28
Full

Hourly Weather History & Observations

Time (HST) Temp. Heat Index Dew Point Humidity Pressure Visibility Wind Dir Wind Speed Gust Speed Precip Events Conditions
12:53 AM 72.0 °F - 68.0 °F 87% 29.98 in 10.0 mi Calm Calm - N/A   Mostly Cloudy
1:53 AM 73.9 °F - 70.0 °F 87% 29.98 in 10.0 mi Calm Calm - N/A   Mostly Cloudy
2:53 AM 73.0 °F - 70.0 °F 90% 29.96 in 10.0 mi North 3.5 mph - N/A   Overcast
3:53 AM 72.0 °F - 69.1 °F 91% 29.95 in 10.0 mi Calm Calm - N/A   Partly Cloudy
4:53 AM 72.0 °F - 69.1 °F 91% 29.96 in 10.0 mi Calm Calm - N/A   Partly Cloudy
5:53 AM 71.1 °F - 66.9 °F 87% 29.98 in 10.0 mi Calm Calm - N/A   Partly Cloudy
6:53 AM 71.1 °F - 66.9 °F 87% 30.00 in 10.0 mi Calm Calm - N/A   Partly Cloudy
7:53 AM 73.0 °F - 68.0 °F 84% 30.01 in 10.0 mi North 3.5 mph - N/A   Scattered Clouds
8:31 AM 75.2 °F - 69.8 °F 83% 30.03 in 10.0 mi NNW 4.6 mph - N/A   Mostly Cloudy
8:53 AM 78.1 °F - 71.1 °F 79% 30.03 in 10.0 mi North 4.6 mph - N/A   Mostly Cloudy
8:58 AM 78.8 °F - 71.6 °F 78% 30.04 in 10.0 mi North 4.6 mph - N/A   Scattered Clouds
9:53 AM 79.0 °F - 73.0 °F 82% 30.04 in 10.0 mi SE 5.8 mph - N/A   Scattered Clouds
10:53 AM 80.1 °F 83.6 °F 71.1 °F 74% 30.04 in 10.0 mi SSE 5.8 mph - N/A   Scattered Clouds
11:53 AM 80.1 °F 83.8 °F 72.0 °F 76% 30.02 in 10.0 mi SSE 6.9 mph - N/A   Scattered Clouds
12:53 PM 79.0 °F - 73.0 °F 82% 30.00 in 10.0 mi SE 10.4 mph - N/A   Scattered Clouds
1:53 PM 79.0 °F - 73.9 °F 84% 29.97 in 10.0 mi SE 10.4 mph - N/A   Mostly Cloudy
2:53 PM 79.0 °F - 72.0 °F 79% 29.97 in 10.0 mi SSE 10.4 mph - N/A   Mostly Cloudy
3:53 PM 79.0 °F - 73.0 °F 82% 29.97 in 10.0 mi SE 10.4 mph - N/A   Mostly Cloudy
4:53 PM 78.1 °F - 71.1 °F 79% 29.98 in 10.0 mi SE 5.8 mph - N/A   Mostly Cloudy
5:53 PM 78.1 °F - 70.0 °F 76% 29.98 in 10.0 mi SE 5.8 mph - N/A   Mostly Cloudy
6:35 PM 77.0 °F - 73.4 °F 89% 29.99 in 10.0 mi SE 8.1 mph - N/A Thunderstorm Thunderstorm
6:53 PM 77.0 °F - 73.0 °F 88% 29.98 in 10.0 mi SE 8.1 mph - N/A Thunderstorm Thunderstorm
7:24 PM 77.0 °F - 73.4 °F 89% 30.00 in 10.0 mi ESE 9.2 mph - N/A   Mostly Cloudy
7:53 PM 77.0 °F - 73.0 °F 88% 30.01 in 10.0 mi ESE 5.8 mph - N/A   Mostly Cloudy
8:53 PM 77.0 °F - 73.0 °F 88% 30.03 in 10.0 mi SE 4.6 mph - N/A   Mostly Cloudy
9:53 PM 77.0 °F - 73.0 °F 88% 30.05 in 10.0 mi East 3.5 mph - N/A   Mostly Cloudy
10:53 PM 77.0 °F - 72.0 °F 84% 30.07 in 10.0 mi Calm Calm - N/A   Overcast
11:53 PM 75.9 °F - 73.0 °F 91% 30.06 in 8.0 mi WSW 9.2 mph - 0.00 in Rain Rain